Wind_Speed
15 14 14 14 14 13 13 13 14 13 13 12 12 13 13 14 15 14 13 12 10 8 7 5 4 4 4 5 4 2 2 3 4 5 6 8 10 8 8 11 11 14 16
14 14 13 13 12 12 12 12 12 12 12 10 11 11 11 11 12 11 11 10 8 6 4 2 1 1 2 2 2 2 1 2 3 5 7 8 8 6 7 8 10 11 15
13 13 13 13 13 12 11 12 11 11 11 11 10 11 11 11 11 10 9 8 7 5 3 2 2 2 2 3 4 4 2 2 3 6 8 11 10 12 7 9 9 10 11
15 14 13 12 11 10 10 10 11 11 11 12 12 13 13 12 12 11 9 7 6 5 4 4 4 4 5 6 6 5 3 3 4 4 6 10 13 16 16 11 13 12 12
16 15 13 10 10 9 9 10 10 11 10 10 12 13 12 12 11 9 8 8 7 7 7 6 5 6 8 8 8 7 7 8 6 9 14 17 17 19 18 24 18 13 13
17 14 13 10 9 10 9 8 6 7 10 12 12 12 10 12 11 11 10 9 7 8 7 6 6 6 8 9 9 9 12 16 12 18 12 21 16 16 17 27 22 18 16
14 15 14 12 10 10 4 7 11 6 13 14 12 11 8 14 11 14 13 10 8 7 6 5 5 6 8 9 10 13 17 14 11 6 6 10 7 16 17 26 25 24 18
10 14 14 12 13 8 7 7 11 6 9 13 13 12 11 12 19 14 15 12 9 7 6 5 5 6 7 11 13 11 8 2 6 4 8 9 9 13 17 26 22 29 25
11 12 14 11 14 9 10 8 8 11 11 11 15 14 9 6 12 12 18 12 9 8 5 4 3 6 11 9 6 5 5 3 3 5 9 7 7 12 19 25 25 32 33
10 13 13 12 11 10 7 10 10 8 8 14 12 17 11 6 8 13 16 14 10 8 6 4 2 6 4 2 5 6 5 4 1 4 13 8 6 10 15 16 21 32 40
11 11 13 13 12 9 8 8 3 5 8 11 13 17 9 8 7 14 18 13 11 9 8 6 4 3 2 2 4 7 8 7 6 5 8 2 5 8 9 8 22 45 41
11 11 10 13 11 11 8 6 5 2 2 7 13 12 7 7 8 13 14 12 12 10 9 5 2 1 0 9 6 4 8 7 5 10 12 5 2 5 5 9 26 47 39
10 15 11 12 12 10 9 8 7 6 4 2 8 13 10 11 17 22 18 14 10 10 4 6 6 3 4 8 7 12 11 12 12 13 11 4 2 3 9 15 33 42 37
8 12 9 10 11 10 10 9 8 5 2 3 5 8 11 11 11 21 20 14 10 12 9 12 7 5 7 8 9 12 7 9 11 13 11 7 1 6 10 17 32 35 36
7 13 12 10 11 12 12 10 7 5 5 6 10 7 10 11 10 14 11 14 14 9 10 6 7 8 5 7 8 9 12 9 1 5 10 9 7 12 14 14 20 28 33
13 14 8 10 10 10 11 10 8 7 5 6 9 11 9 16 16 17 16 16 12 10 9 5 7 5 6 7 5 7 8 8 7 9 11 11 11 13 15 17 15 23 29
9 11 12 10 9 9 9 9 9 6 5 4 7 12 14 17 18 20 21 15 12 5 1 4 2 5 10 4 2 3 9 9 8 9 13 11 11 12 15 15 15 16 20
11 8 5 10 11 10 10 9 9 9 9 9 9 12 21 16 20 19 17 14 11 8 6 7 5 5 4 6 8 7 5 9 7 7 16 11 11 11 11 13 14 14 16
6 6 9 10 10 9 9 9 10 10 10 10 11 9 20 18 19 18 19 13 10 6 7 9 7 10 5 3 12 9 5 10 6 8 12 12 12 11 10 10 11 12 12
7 4 5 8 8 8 8 10 9 9 11 9 8 12 16 21 21 18 18 4 12 9 9 3 8 6 6 11 3 4 8 8 3 9 4 12 13 11 11 8 8 9 10
8 8 3 4 7 7 9 8 9 11 9 8 9 15 16 21 20 19 16 8 9 10 2 5 4 3 5 4 2 2 2 2 4 8 8 11 6 10 11 9 6 7 7
9 10 10 6 6 7 7 8 8 11 8 6 9 14 18 19 21 20 18 18 15 10 7 4 4 4 4 1 4 8 8 4 5 6 3 1 7 3 10 6 4 7 8
10 18 16 7 6 6 6 7 9 11 11 9 10 13 16 18 19 21 18 13 14 11 12 8 5 5 6 3 5 3 5 6 7 1 4 1 4 7 4 4 4 9 7
10 20 13 8 6 6 6 6 9 10 9 9 12 15 17 22 21 20 18 16 13 15 10 11 8 6 6 9 5 6 7 3 4 4 6 3 4 6 4 4 3 1 4
15 15 7 7 7 5 5 5 7 9 11 11 13 17 21 21 20 21 17 14 15 15 8 7 7 8 9 7 5 5 2 4 7 11 15 10 9 5 8 3 4 6 5
14 10 8 7 7 6 5 5 7 9 9 11 15 20 20 17 17 21 20 17 16 13 12 12 8 6 5 4 5 4 7 9 7 8 4 13 5 7 9 4 8 8 7
Wind_Direction
159 149 148 145 143 146 147 149 145 144 145 143 141 140 134 134 137 143 146 147 144 137 134 132 121 114 102 98 92 106 148 171 171 173 155 153 137 128 123 118 119 116 112
165 156 151 146 145 145 147 152 148 147 148 148 147 149 147 142 145 153 158 157 149 156 163 159 144 123 109 70 33 357 244 216 204 206 200 181 160 157 154 139 129 126 121
173 162 155 151 152 150 154 151 150 154 153 156 165 163 160 157 158 166 169 166 162 174 194 231 259 261 291 327 337 330 311 271 236 212 213 214 197 216 221 162 162 144 137
172 173 164 164 156 158 158 155 160 163 167 170 180 179 178 173 174 179 182 185 184 198 230 245 268 273 285 302 306 302 280 245 204 214 199 222 224 213 237 195 183 159 146
173 181 173 173 155 173 177 172 179 176 179 185 196 199 191 190 191 192 198 201 209 217 232 243 263 276 285 290 289 278 271 251 222 262 224 234 239 243 214 212 191 177 159
184 180 185 190 173 170 183 190 239 219 202 200 209 209 202 206 199 200 206 211 216 220 235 245 266 285 290 295 293 301 297 283 267 286 211 230 246 215 203 197 192 188 176
179 189 195 197 185 158 177 223 245 242 232 226 221 227 224 218 211 205 209 207 215 214 230 244 272 288 290 305 311 294 295 258 259 225 163 196 206 198 200 195 186 195 188
178 193 203 203 207 239 225 256 221 267 235 213 231 250 240 226 219 240 208 211 212 215 224 242 270 290 303 318 321 322 330 336 208 249 229 198 197 193 192 180 191 200 192
201 188 211 205 209 212 235 246 252 262 226 230 246 234 225 240 202 212 207 204 203 213 215 239 260 326 312 314 346 15 14 50 157 215 231 201 220 196 190 194 212 202 194
206 183 205 205 210 216 240 248 281 232 232 255 226 225 235 236 216 211 200 194 193 204 201 209 255 328 337 346 24 19 13 7 77 224 165 171 210 218 207 226 213 202 191
216 197 201 202 208 219 236 230 242 246 268 227 216 231 235 230 212 181 173 186 181 195 194 193 221 188 7 353 41 25 14 38 69 63 63 153 224 224 232 233 195 180 183
193 201 190 193 198 206 213 203 230 191 21 216 215 205 203 172 166 155 164 175 177 193 200 195 178 192 161 62 18 47 52 47 39 41 41 30 294 178 183 190 179 175 179
201 190 213 199 206 213 212 211 213 223 61 19 192 214 194 181 157 163 161 163 181 200 185 186 140 171 87 56 28 39 68 114 65 77 57 51 179 119 106 160 166 178 182
216 225 204 205 214 216 213 208 209 213 175 223 182 202 193 206 191 173 170 156 193 200 182 172 110 123 86 57 30 52 46 31 81 68 77 72 139 170 147 145 172 182 187
219 211 223 210 214 217 220 215 218 222 217 229 215 211 197 206 190 168 155 168 212 215 220 138 78 77 118 81 49 50 61 77 274 41 88 94 106 149 155 153 169 185 190
189 246 190 219 214 219 222 229 238 239 235 235 233 228 217 199 192 190 187 176 182 209 286 67 79 137 107 66 43 39 95 99 95 115 113 113 118 130 147 150 155 175 189
220 239 220 230 222 212 218 233 254 241 247 262 256 233 184 196 199 198 179 179 172 182 342 33 280 109 79 122 9 57 83 96 68 105 120 128 138 138 137 142 147 163 183
215 244 211 221 234 223 226 233 238 250 255 271 285 234 197 197 187 188 179 167 178 175 150 146 85 99 76 154 122 106 66 86 84 99 104 124 145 152 152 156 160 163 173
240 230 243 247 248 246 235 237 242 243 255 266 284 225 193 189 189 189 180 177 181 185 182 96 33 344 230 156 152 106 106 91 105 85 86 124 132 145 152 162 170 174 183
261 275 246 246 249 255 241 244 245 238 255 270 265 181 183 180 182 185 185 153 179 210 172 130 147 175 294 104 22 66 126 79 85 86 83 92 100 128 130 148 168 182 191
305 269 290 259 296 281 256 240 235 234 246 274 214 179 179 182 184 188 197 178 184 228 192 160 129 256 161 123 171 141 92 67 44 79 111 97 59 91 117 122 143 167 175
298 324 325 296 293 288 259 232 233 234 231 233 195 198 192 192 187 188 194 197 188 215 184 147 161 182 92 173 226 197 154 167 220 182 137 141 105 91 111 123 151 162 150
278 308 306 315 306 293 263 231 216 229 224 222 211 196 194 195 191 195 201 200 200 202 196 173 196 164 136 130 321 176 290 187 179 171 151 267 178 120 100 106 134 132 140
245 294 298 333 326 305 277 230 227 233 228 218 202 201 201 198 196 200 193 192 193 220 224 180 178 186 160 84 231 189 219 234 180 223 174 263 147 173 252 164 197 260 140
242 293 323 356 341 299 260 233 227 232 240 209 199 190 188 195 201 201 201 198 204 215 229 205 190 175 192 217 178 172 164 205 210 223 212 194 195 189 228 312 192 199 215
255 283 328 2 342 333 281 239 239 248 238 218 202 195 190 202 204 208 201 205 212 213 209 215 209 210 224 206 223 206 193 195 220 232 226 249 183 233 211 187 278 222 203
Height
3176 3178 3180 3181 3182 3183 3184 3186 3187 3190 3192 3194 3195 3197 3198 3200 3202 3203 3204 3205 3207 3208 3209 3210 3212 3212 3213 3214 3214 3214 3215 3216 3217 3218 3219 3220 3221 3224 3226 3226 3226 3227 3228
3176 3178 3181 3183 3185 3185 3187 3188 3190 3192 3193 3195 3196 3198 3200 3201 3203 3204 3206 3206 3207 3208 3210 3211 3212 3213 3214 3214 3214 3215 3215 3215 3217 3219 3220 3221 3222 3224 3227 3228 3228 3230 3230
3176 3179 3182 3184 3185 3187 3188 3189 3191 3193 3194 3196 3198 3198 3200 3202 3203 3205 3206 3207 3207 3209 3210 3211 3212 3213 3213 3214 3214 3214 3214 3215 3216 3217 3219 3221 3222 3225 3228 3229 3230 3231 3233
3177 3179 3182 3184 3185 3187 3189 3191 3192 3193 3195 3196 3197 3198 3200 3201 3202 3204 3206 3207 3208 3209 3210 3211 3212 3212 3213 3213 3213 3213 3213 3213 3214 3215 3216 3218 3221 3223 3227 3229 3230 3232 3234
3177 3179 3182 3184 3185 3188 3189 3191 3192 3193 3195 3196 3197 3199 3200 3202 3203 3206 3207 3207 3208 3209 3210 3210 3211 3212 3212 3212 3212 3212 3212 3212 3212 3213 3212 3215 3218 3219 3221 3226 3230 3232 3234
3176 3181 3183 3185 3186 3189 3189 3191 3193 3194 3195 3194 3197 3199 3201 3202 3204 3205 3206 3207 3208 3209 3210 3211 3211 3211 3211 3211 3212 3212 3212 3211 3212 3211 3207 3209 3213 3214 3217 3222 3228 3231 3234
3176 3180 3183 3185 3187 3188 3191 3191 3193 3193 3194 3195 3197 3199 3201 3203 3204 3204 3205 3207 3209 3209 3210 3210 3211 3211 3212 3212 3211 3210 3209 3208 3209 3211 3208 3208 3211 3212 3215 3218 3224 3229 3234
3177 3180 3183 3185 3186 3187 3190 3190 3191 3191 3193 3195 3197 3198 3200 3202 3202 3202 3205 3207 3208 3209 3209 3210 3210 3210 3211 3210 3210 3207 3208 3208 3208 3209 3211 3210 3210 3211 3213 3216 3221 3227 3232
3175 3180 3183 3185 3187 3189 3190 3190 3191 3191 3192 3195 3196 3197 3199 3200 3201 3202 3204 3206 3208 3209 3209 3209 3210 3210 3210 3209 3208 3207 3207 3208 3208 3207 3207 3207 3210 3210 3210 3214 3219 3223 3229
3175 3178 3182 3185 3187 3188 3189 3190 3190 3190 3191 3193 3193 3195 3197 3199 3200 3201 3202 3205 3207 3208 3208 3209 3209 3210 3208 3208 3206 3206 3206 3206 3205 3204 3200 3206 3207 3207 3206 3209 3212 3217 3226
3173 3176 3180 3185 3186 3187 3187 3188 3190 3192 3191 3191 3194 3196 3198 3199 3198 3198 3201 3205 3206 3207 3207 3207 3207 3208 3209 3207 3204 3203 3204 3204 3203 3201 3203 3205 3205 3204 3202 3203 3206 3214 3225
3173 3175 3178 3183 3185 3187 3188 3189 3191 3192 3192 3190 3193 3195 3198 3199 3199 3201 3203 3205 3205 3206 3207 3208 3210 3210 3208 3205 3202 3203 3201 3203 3203 3203 3203 3202 3201 3200 3200 3201 3205 3214 3222
3173 3175 3178 3181 3184 3186 3188 3189 3191 3192 3190 3190 3191 3195 3197 3198 3197 3199 3200 3203 3205 3207 3209 3208 3208 3210 3207 3204 3203 3203 3198 3198 3203 3203 3204 3204 3201 3201 3201 3203 3209 3217 3222
3172 3174 3176 3180 3182 3185 3187 3188 3190 3190 3190 3191 3193 3194 3197 3196 3198 3198 3199 3202 3205 3205 3204 3203 3206 3207 3206 3205 3204 3204 3200 3198 3201 3202 3204 3205 3202 3203 3205 3208 3213 3219 3224
3171 3172 3175 3178 3181 3183 3185 3187 3188 3189 3190 3190 3192 3194 3196 3197 3197 3200 3199 3202 3206 3203 3200 3208 3206 3205 3208 3206 3205 3205 3204 3201 3202 3203 3204 3206 3206 3208 3209 3211 3214 3219 3225
3171 3170 3174 3177 3180 3182 3184 3186 3187 3188 3189 3190 3190 3193 3194 3196 3197 3199 3200 3203 3207 3206 3205 3204 3204 3208 3210 3210 3210 3208 3206 3204 3201 3204 3204 3207 3209 3211 3212 3214 3216 3219 3223
3170 3172 3174 3176 3179 3181 3183 3185 3185 3186 3188 3189 3189 3190 3191 3194 3195 3197 3200 3204 3207 3210 3208 3205 3207 3210 3212 3213 3213 3211 3208 3205 3203 3204 3204 3207 3210 3212 3214 3215 3218 3220 3224
3167 3169 3174 3176 3177 3180 3182 3183 3184 3185 3185 3187 3187 3187 3190 3193 3195 3197 3200 3204 3208 3209 3210 3207 3211 3212 3212 3205 3208 3209 3208 3206 3207 3207 3205 3208 3211 3213 3216 3217 3219 3221 3224
3168 3171 3173 3174 3176 3178 3180 3182 3182 3183 3184 3186 3185 3185 3188 3192 3195 3199 3200 3203 3207 3210 3209 3206 3209 3206 3206 3205 3207 3206 3210 3209 3209 3210 3209 3210 3210 3213 3216 3218 3220 3222 3224
3169 3171 3173 3173 3174 3175 3177 3179 3180 3181 3183 3184 3184 3184 3187 3190 3195 3200 3201 3199 3204 3206 3207 3207 3210 3207 3200 3205 3202 3206 3205 3210 3211 3211 3213 3211 3211 3212 3215 3218 3219 3222 3223
3168 3170 3171 3171 3172 3173 3174 3176 3177 3179 3181 3182 3183 3185 3188 3191 3195 3199 3201 3199 3204 3206 3209 3210 3208 3209 3209 3207 3208 3207 3211 3213 3213 3212 3213 3212 3211 3211 3214 3216 3219 3220 3222
3169 3171 3171 3171 3172 3173 3174 3174 3176 3178 3180 3181 3183 3185 3188 3190 3194 3196 3199 3199 3202 3205 3207 3209 3210 3210 3211 3212 3213 3213 3212 3215 3212 3211 3212 3212 3212 3212 3213 3216 3218 3220 3221
3168 3169 3171 3171 3171 3171 3172 3173 3175 3177 3178 3180 3182 3183 3185 3190 3193 3196 3198 3197 3202 3203 3203 3208 3209 3211 3206 3212 3212 3212 3202 3213 3209 3211 3213 3214 3213 3213 3213 3216 3219 3220 3221
3169 3171 3172 3171 3171 3171 3172 3173 3174 3176 3177 3179 3180 3182 3184 3189 3191 3193 3198 3200 3199 3199 3197 3207 3209 3210 3212 3209 3211 3209 3211 3213 3209 3212 3216 3216 3216 3214 3216 3218 3219 3219 3221
3172 3172 3173 3172 3172 3173 3172 3173 3174 3176 3177 3176 3178 3179 3183 3186 3189 3192 3194 3196 3198 3199 3199 3201 3207 3210 3211 3210 3209 3210 3211 3213 3212 3214 3214 3208 3215 3214 3210 3218 3219 3221 3221
3173 3174 3173 3174 3173 3173 3173 3174 3175 3175 3176 3176 3176 3178 3180 3184 3188 3192 3195 3198 3199 3199 3199 3199 3201 3204 3207 3207 3208 3210 3211 3209 3211 3213 3213 3210 3206 3210 3210 3215 3218 3219 3221